Time,TemperatureF,DewpointF,PressureIn,WindDirection,WindDirectionDegrees,WindSpeedMPH,WindSpeedGustMPH,Humidity,HourlyPrecipIn,Conditions,Clouds,dailyrainin,SoftwareType,DateUTC
2013-05-05 00:00:00,39.4,39.4,30.13,NNE,29,9.0,19.0,100,0.00,,,0.13,Wunderground v.1.15,2013-05-05 05:00:00,
2013-05-05 00:06:00,39.4,39.4,30.13,NNE,18,9.0,19.0,100,0.00,,,0.00,Wunderground v.1.15,2013-05-05 05:06:00,
2013-05-05 00:10:00,39.4,39.4,30.13,NNE,18,9.0,9.0,100,0.00,,,0.00,Wunderground v.1.15,2013-05-05 05:10:00,
2013-05-05 00:14:00,39.4,39.4,30.13,NNW,348,8.0,11.0,100,0.00,,,0.00,Wunderground v.1.15,2013-05-05 05:14:00,
2013-05-05 00:16:00,39.4,39.4,30.13,NNW,340,8.0,11.0,100,0.00,,,0.00,Wunderground v.1.15,2013-05-05 05:16:00,
2013-05-05 00:17:00,39.4,39.4,30.13,NNE,19,8.0,11.0,100,0.00,,,0.00,Wunderground v.1.15,2013-05-05 05:17:00,
2013-05-05 00:19:00,39.4,39.4,30.13,North,8,8.0,8.0,100,0.00,,,0.00,Wunderground v.1.15,2013-05-05 05:19:00,
2013-05-05 00:26:00,39.4,39.4,30.13,North,3,9.0,10.0,100,0.00,,,0.00,Wunderground v.1.15,2013-05-05 05:26:00,
2013-05-05 00:32:00,39.3,39.3,30.13,North,11,9.0,9.0,100,0.00,,,0.00,Wunderground v.1.15,2013-05-05 05:32:00,
2013-05-05 00:34:00,39.4,39.4,30.13,NNE,15,8.0,9.0,100,0.00,,,0.00,Wunderground v.1.15,2013-05-05 05:34:00,
2013-05-05 00:38:00,39.3,39.3,30.13,North,8,8.0,9.0,100,0.00,,,0.00,Wunderground v.1.15,2013-05-05 05:38:00,
2013-05-05 00:40:00,39.3,39.3,30.13,NNE,12,9.0,9.0,100,0.00,,,0.00,Wunderground v.1.15,2013-05-05 05:40:00,
2013-05-05 00:44:00,39.4,39.4,30.13,NNE,18,9.0,9.0,100,0.00,,,0.00,Wunderground v.1.15,2013-05-05 05:44:00,
2013-05-05 00:46:00,39.3,39.3,30.13,NE,39,9.0,12.0,100,0.00,,,0.00,Wunderground v.1.15,2013-05-05 05:46:00,
2013-05-05 00:48:00,39.3,39.3,30.13,NNE,15,9.0,12.0,100,0.00,,,0.00,Wunderground v.1.15,2013-05-05 05:48:00,
2013-05-05 00:51:00,39.3,39.3,30.13,NNE,15,10.0,10.0,100,0.00,,,0.00,Wunderground v.1.15,2013-05-05 05:51:00,
2013-05-05 00:53:00,39.3,39.3,30.13,NNE,18,9.0,10.0,100,0.00,,,0.00,Wunderground v.1.15,2013-05-05 05:53:00,
2013-05-05 00:56:00,39.3,39.3,30.13,North,11,10.0,10.0,100,0.00,,,0.00,Wunderground v.1.15,2013-05-05 05:56:00,
2013-05-05 00:58:00,39.3,39.3,30.13,NNE,18,9.0,10.0,100,0.00,,,0.00,Wunderground v.1.15,2013-05-05 05:58:00,
2013-05-05 01:04:00,39.3,39.3,30.13,NNE,20,9.0,14.0,100,0.00,,,0.00,Wunderground v.1.15,2013-05-05 06:04:00,
2013-05-05 01:08:00,39.3,39.3,30.13,North,356,8.0,14.0,100,0.00,,,0.00,Wunderground v.1.15,2013-05-05 06:08:00,
2013-05-05 01:10:00,39.3,39.3,30.13,NNE,18,8.0,14.0,100,0.00,,,0.00,Wunderground v.1.15,2013-05-05 06:10:00,
2013-05-05 01:12:00,39.3,39.3,30.13,NNE,25,8.0,14.0,100,0.00,,,0.00,Wunderground v.1.15,2013-05-05 06:12:00,
2013-05-05 01:15:00,39.3,39.3,30.13,NNE,31,9.0,14.0,100,0.00,,,0.00,Wunderground v.1.15,2013-05-05 06:15:00,
2013-05-05 01:18:00,39.3,39.3,30.13,NNE,20,9.0,14.0,100,0.00,,,0.00,Wunderground v.1.15,2013-05-05 06:18:00,
2013-05-05 01:22:00,39.3,39.3,30.12,NNE,15,9.0,14.0,100,0.00,,,0.00,Wunderground v.1.15,2013-05-05 06:22:00,
2013-05-05 01:24:00,39.3,39.3,30.12,NNE,18,9.0,14.0,100,0.00,,,0.00,Wunderground v.1.15,2013-05-05 06:24:00,
2013-05-05 01:26:00,39.3,39.3,30.12,NNE,18,9.0,14.0,100,0.00,,,0.00,Wunderground v.1.15,2013-05-05 06:26:00,
2013-05-05 01:28:00,39.3,39.3,30.12,NNE,18,9.0,14.0,100,0.00,,,0.00,Wunderground v.1.15,2013-05-05 06:28:00,
2013-05-05 01:30:00,39.3,39.3,30.12,NNE,28,9.0,14.0,100,0.00,,,0.00,Wunderground v.1.15,2013-05-05 06:30:00,
2013-05-05 01:32:00,39.3,39.3,30.12,NNE,23,9.0,14.0,100,0.00,,,0.00,Wunderground v.1.15,2013-05-05 06:32:00,
2013-05-05 01:38:00,39.3,39.3,30.12,NNE,29,8.0,14.0,100,0.00,,,0.00,Wunderground v.1.15,2013-05-05 06:38:00,
2013-05-05 01:39:00,39.3,39.3,30.12,NNE,30,8.0,14.0,100,0.00,,,0.00,Wunderground v.1.15,2013-05-05 06:39:00,
2013-05-05 01:44:00,39.3,39.3,30.12,NNE,23,8.0,14.0,100,0.00,,,0.00,Wunderground v.1.15,2013-05-05 06:44:00,
2013-05-05 01:48:00,39.4,39.4,30.12,NNW,345,8.0,14.0,100,0.00,,,0.00,Wunderground v.1.15,2013-05-05 06:48:00,
2013-05-05 01:50:00,39.4,39.4,30.11,NE,36,8.0,14.0,100,0.00,,,0.00,Wunderground v.1.15,2013-05-05 06:50:00,
2013-05-05 01:54:00,39.4,39.4,30.11,NNE,27,9.0,14.0,100,0.00,,,0.00,Wunderground v.1.15,2013-05-05 06:54:00,
2013-05-05 01:56:00,39.3,39.3,30.11,North,6,9.0,14.0,100,0.00,,,0.00,Wunderground v.1.15,2013-05-05 06:56:00,
2013-05-05 01:58:00,39.4,39.4,30.11,NNE,23,9.0,14.0,100,0.00,,,0.00,Wunderground v.1.15,2013-05-05 06:58:00,
2013-05-05 02:00:00,39.4,39.4,30.11,NNE,15,9.0,9.0,100,0.00,,,0.00,Wunderground v.1.15,2013-05-05 07:00:00,
2013-05-05 02:02:00,39.4,39.4,30.11,NNE,15,9.0,14.0,100,0.00,,,0.00,Wunderground v.1.15,2013-05-05 07:02:00,
2013-05-05 02:04:00,39.4,39.4,30.11,NNE,21,9.0,14.0,100,0.00,,,0.00,Wunderground v.1.15,2013-05-05 07:04:00,
2013-05-05 02:06:00,39.3,39.3,30.11,NNE,24,9.0,14.0,100,0.00,,,0.00,Wunderground v.1.15,2013-05-05 07:06:00,
2013-05-05 02:08:00,39.3,39.3,30.11,NNE,29,9.0,14.0,100,0.00,,,0.00,Wunderground v.1.15,2013-05-05 07:08:00,
2013-05-05 02:10:00,39.4,39.4,30.11,NNE,25,8.0,8.0,100,0.00,,,0.00,Wunderground v.1.15,2013-05-05 07:10:00,
2013-05-05 02:12:00,39.4,39.4,30.11,NE,46,8.0,14.0,100,0.00,,,0.00,Wunderground v.1.15,2013-05-05 07:12:00,
2013-05-05 02:16:00,39.4,39.4,30.11,NNE,30,8.0,14.0,100,0.00,,,0.00,Wunderground v.1.15,2013-05-05 07:16:00,
2013-05-05 02:18:00,39.4,39.4,30.11,North,6,8.0,14.0,100,0.00,,,0.00,Wunderground v.1.15,2013-05-05 07:18:00,
2013-05-05 02:20:00,39.4,39.4,30.11,NNE,19,8.0,14.0,100,0.00,,,0.00,Wunderground v.1.15,2013-05-05 07:20:00,
2013-05-05 02:22:00,39.4,39.4,30.11,NNE,23,8.0,14.0,100,0.00,,,0.00,Wunderground v.1.15,2013-05-05 07:22:00,
2013-05-05 02:24:00,39.4,39.4,30.11,North,6,8.0,14.0,100,0.00,,,0.00,Wunderground v.1.15,2013-05-05 07:24:00,
2013-05-05 02:26:00,39.4,39.4,30.11,NNE,18,8.0,14.0,100,0.00,,,0.00,Wunderground v.1.15,2013-05-05 07:26:00,
2013-05-05 02:28:00,39.4,39.4,30.11,NNE,19,8.0,14.0,100,0.00,,,0.00,Wunderground v.1.15,2013-05-05 07:28:00,
2013-05-05 02:30:00,39.4,39.4,30.11,North,11,8.0,8.0,100,0.00,,,0.00,Wunderground v.1.15,2013-05-05 07:30:00,
2013-05-05 02:36:00,39.4,39.4,30.11,NNE,22,7.0,14.0,100,0.00,,,0.00,Wunderground v.1.15,2013-05-05 07:36:00,
2013-05-05 02:38:00,39.4,39.4,30.11,NNE,33,7.0,14.0,100,0.00,,,0.00,Wunderground v.1.15,2013-05-05 07:38:00,
2013-05-05 02:40:00,39.4,39.4,30.11,NNE,26,7.0,14.0,100,0.00,,,0.00,Wunderground v.1.15,2013-05-05 07:40:00,
2013-05-05 02:44:00,39.4,39.4,30.11,NNE,19,7.0,14.0,100,0.00,,,0.00,Wunderground v.1.15,2013-05-05 07:44:00,
2013-05-05 02:48:00,39.4,39.4,30.11,NNE,33,7.0,14.0,100,0.00,,,0.00,Wunderground v.1.15,2013-05-05 07:48:00,
2013-05-05 02:50:00,39.4,39.4,30.11,NNE,26,7.0,7.0,100,0.00,,,0.00,Wunderground v.1.15,2013-05-05 07:50:00,
2013-05-05 02:52:00,39.4,39.4,30.10,NNE,25,7.0,14.0,100,0.00,,,0.00,Wunderground v.1.15,2013-05-05 07:52:00,
2013-05-05 02:54:00,39.4,39.4,30.10,NNE,20,7.0,14.0,100,0.00,,,0.00,Wunderground v.1.15,2013-05-05 07:54:00,
2013-05-05 02:58:00,39.4,39.4,30.10,NNE,27,7.0,14.0,100,0.00,,,0.00,Wunderground v.1.15,2013-05-05 07:58:00,
2013-05-05 03:00:00,39.3,39.3,30.10,NNE,13,7.0,14.0,100,0.00,,,0.00,Wunderground v.1.15,2013-05-05 08:00:00,
2013-05-05 03:04:00,39.4,39.4,30.10,NNE,16,7.0,14.0,100,0.00,,,0.00,Wunderground v.1.15,2013-05-05 08:04:00,
2013-05-05 03:06:00,39.3,39.3,30.10,North,6,7.0,14.0,100,0.00,,,0.00,Wunderground v.1.15,2013-05-05 08:06:00,
2013-05-05 03:08:00,39.4,39.4,30.10,North,359,7.0,14.0,100,0.00,,,0.00,Wunderground v.1.15,2013-05-05 08:08:00,
2013-05-05 03:10:00,39.4,39.4,30.10,NNW,335,7.0,14.0,100,0.00,,,0.00,Wunderground v.1.15,2013-05-05 08:10:00,
2013-05-05 03:14:00,39.4,39.4,30.10,North,352,7.0,14.0,100,0.00,,,0.00,Wunderground v.1.15,2013-05-05 08:14:00,
2013-05-05 03:16:00,39.3,39.3,30.10,NNE,16,7.0,14.0,100,0.00,,,0.00,Wunderground v.1.15,2013-05-05 08:16:00,
2013-05-05 03:20:00,39.3,39.3,30.10,North,352,7.0,7.0,100,0.00,,,0.00,Wunderground v.1.15,2013-05-05 08:20:00,
2013-05-05 03:24:00,39.3,39.3,30.10,North,8,7.0,14.0,100,0.00,,,0.00,Wunderground v.1.15,2013-05-05 08:24:00,
2013-05-05 03:26:00,39.3,39.3,30.10,NNE,20,8.0,14.0,100,0.00,,,0.00,Wunderground v.1.15,2013-05-05 08:26:00,
2013-05-05 03:28:00,39.3,39.3,30.10,North,352,8.0,14.0,100,0.00,,,0.00,Wunderground v.1.15,2013-05-05 08:28:00,
2013-05-05 03:32:00,39.3,39.3,30.10,NNE,30,8.0,10.0,100,0.00,,,0.00,Wunderground v.1.15,2013-05-05 08:32:00,
2013-05-05 03:38:00,39.3,39.3,30.10,North,11,8.0,14.0,100,0.00,,,0.00,Wunderground v.1.15,2013-05-05 08:38:00,
2013-05-05 03:39:00,39.4,39.4,30.10,North,11,8.0,14.0,100,0.00,,,0.00,Wunderground v.1.15,2013-05-05 08:39:00,
2013-05-05 03:41:00,39.3,39.3,30.10,NNE,15,9.0,14.0,100,0.00,,,0.00,Wunderground v.1.15,2013-05-05 08:41:00,
2013-05-05 03:44:00,39.3,39.3,30.10,NNW,335,9.0,14.0,100,0.00,,,0.00,Wunderground v.1.15,2013-05-05 08:44:00,
2013-05-05 03:46:00,39.3,39.3,30.10,NNE,13,9.0,14.0,100,0.00,,,0.00,Wunderground v.1.15,2013-05-05 08:46:00,
2013-05-05 03:50:00,39.4,39.4,30.10,NNE,26,8.0,14.0,100,0.00,,,0.00,Wunderground v.1.15,2013-05-05 08:50:00,
2013-05-05 03:52:00,39.4,39.4,30.10,NNE,27,8.0,14.0,100,0.00,,,0.00,Wunderground v.1.15,2013-05-05 08:52:00,
2013-05-05 03:54:00,39.4,39.4,30.10,NNE,20,8.0,14.0,100,0.00,,,0.00,Wunderground v.1.15,2013-05-05 08:54:00,
2013-05-05 03:56:00,39.4,39.4,30.10,NNE,18,8.0,14.0,100,0.00,,,0.00,Wunderground v.1.15,2013-05-05 08:56:00,
2013-05-05 03:58:00,39.4,39.4,30.10,NNE,13,8.0,14.0,100,0.00,,,0.00,Wunderground v.1.15,2013-05-05 08:58:00,
2013-05-05 04:00:00,39.4,39.4,30.10,NNE,19,8.0,8.0,100,0.00,,,0.00,Wunderground v.1.15,2013-05-05 09:00:00,
2013-05-05 04:02:00,39.4,39.4,30.10,NNE,18,8.0,14.0,100,0.00,,,0.00,Wunderground v.1.15,2013-05-05 09:02:00,
2013-05-05 04:04:00,39.3,39.3,30.10,NNE,18,7.0,14.0,100,0.00,,,0.00,Wunderground v.1.15,2013-05-05 09:04:00,
2013-05-05 04:07:00,39.3,39.3,30.10,North,11,7.0,14.0,100,0.00,,,0.00,Wunderground v.1.15,2013-05-05 09:07:00,
2013-05-05 04:10:00,39.3,39.3,30.10,NNE,18,7.0,14.0,100,0.00,,,0.00,Wunderground v.1.15,2013-05-05 09:10:00,
2013-05-05 04:14:00,39.3,39.3,30.10,North,3,7.0,14.0,100,0.00,,,0.00,Wunderground v.1.15,2013-05-05 09:14:00,
2013-05-05 04:16:00,39.3,39.3,30.10,North,4,7.0,14.0,100,0.00,,,0.00,Wunderground v.1.15,2013-05-05 09:16:00,
2013-05-05 04:18:00,39.3,39.3,30.10,North,11,7.0,14.0,100,0.00,,,0.00,Wunderground v.1.15,2013-05-05 09:18:00,
2013-05-05 04:20:00,39.3,39.3,30.10,North,6,7.0,7.0,100,0.00,,,0.00,Wunderground v.1.15,2013-05-05 09:20:00,
2013-05-05 04:22:00,39.3,39.3,30.10,NNE,13,7.0,14.0,100,0.00,,,0.00,Wunderground v.1.15,2013-05-05 09:22:00,
2013-05-05 04:26:00,39.3,39.3,30.11,NNE,21,7.0,14.0,100,0.00,,,0.00,Wunderground v.1.15,2013-05-05 09:26:00,
2013-05-05 04:28:00,39.3,39.3,30.10,North,11,7.0,14.0,100,0.00,,,0.00,Wunderground v.1.15,2013-05-05 09:28:00,
2013-05-05 04:32:00,39.3,39.3,30.11,NNE,13,7.0,14.0,100,0.00,,,0.00,Wunderground v.1.15,2013-05-05 09:32:00,
2013-05-05 04:34:00,39.3,39.3,30.11,NNE,16,7.0,14.0,100,0.00,,,0.00,Wunderground v.1.15,2013-05-05 09:34:00,
2013-05-05 04:36:00,39.3,39.3,30.11,NNE,20,7.0,14.0,100,0.00,,,0.00,Wunderground v.1.15,2013-05-05 09:36:00,
2013-05-05 04:37:00,39.3,39.3,30.11,North,11,7.0,14.0,100,0.00,,,0.00,Wunderground v.1.15,2013-05-05 09:37:00,
2013-05-05 04:42:00,39.2,39.2,30.11,NNE,19,6.0,14.0,100,0.00,,,0.00,Wunderground v.1.15,2013-05-05 09:42:00,
2013-05-05 04:44:00,39.3,39.3,30.11,NNE,29,7.0,14.0,100,0.00,,,0.00,Wunderground v.1.15,2013-05-05 09:44:00,
2013-05-05 04:46:00,39.3,39.3,30.11,NNE,18,7.0,14.0,100,0.00,,,0.00,Wunderground v.1.15,2013-05-05 09:46:00,
2013-05-05 04:52:00,39.3,39.3,30.11,North,9,7.0,14.0,100,0.00,,,0.00,Wunderground v.1.15,2013-05-05 09:52:00,
2013-05-05 04:58:00,39.4,39.4,30.11,NNE,15,7.0,14.0,100,0.00,,,0.00,Wunderground v.1.15,2013-05-05 09:58:00,
2013-05-05 05:00:00,39.4,39.4,30.11,North,8,7.0,7.0,100,0.00,,,0.00,Wunderground v.1.15,2013-05-05 10:00:00,
2013-05-05 05:02:00,39.4,39.4,30.11,North,357,6.0,14.0,100,0.00,,,0.00,Wunderground v.1.15,2013-05-05 10:02:00,
2013-05-05 05:03:00,39.4,39.4,30.11,North,11,6.0,14.0,100,0.00,,,0.00,Wunderground v.1.15,2013-05-05 10:03:00,
2013-05-05 05:05:00,39.4,39.4,30.11,North,6,6.0,14.0,100,0.00,,,0.00,Wunderground v.1.15,2013-05-05 10:05:00,
2013-05-05 05:07:00,39.4,39.4,30.11,NNE,19,6.0,14.0,100,0.00,,,0.00,Wunderground v.1.15,2013-05-05 10:07:00,
2013-05-05 05:10:00,39.4,39.4,30.11,North,4,6.0,14.0,100,0.00,,,0.00,Wunderground v.1.15,2013-05-05 10:10:00,
2013-05-05 05:12:00,39.4,39.4,30.11,North,11,6.0,14.0,100,0.00,,,0.00,Wunderground v.1.15,2013-05-05 10:12:00,
2013-05-05 05:16:00,39.5,39.5,30.11,North,357,6.0,14.0,100,0.00,,,0.00,Wunderground v.1.15,2013-05-05 10:16:00,
2013-05-05 05:18:00,39.5,39.5,30.11,North,5,6.0,14.0,100,0.00,,,0.00,Wunderground v.1.15,2013-05-05 10:18:00,
2013-05-05 05:22:00,39.5,39.5,30.11,NNE,13,6.0,14.0,100,0.00,,,0.00,Wunderground v.1.15,2013-05-05 10:22:00,
2013-05-05 05:24:00,39.5,39.5,30.11,North,6,6.0,14.0,100,0.00,,,0.00,Wunderground v.1.15,2013-05-05 10:24:00,
2013-05-05 05:26:00,39.5,39.5,30.11,NNE,18,6.0,14.0,100,0.00,,,0.00,Wunderground v.1.15,2013-05-05 10:26:00,
2013-05-05 05:30:00,39.5,39.5,30.11,North,354,6.0,14.0,100,0.00,,,0.00,Wunderground v.1.15,2013-05-05 10:30:00,
2013-05-05 05:34:00,39.5,39.5,30.11,NNE,13,7.0,14.0,100,0.00,,,0.00,Wunderground v.1.15,2013-05-05 10:34:00,
2013-05-05 05:36:00,39.5,39.5,30.11,North,354,7.0,14.0,100,0.00,,,0.00,Wunderground v.1.15,2013-05-05 10:36:00,
2013-05-05 05:40:00,39.5,39.5,30.11,North,357,7.0,14.0,100,0.00,,,0.00,Wunderground v.1.15,2013-05-05 10:40:00,
2013-05-05 05:44:00,39.5,39.5,30.11,NNW,344,6.0,14.0,100,0.00,,,0.00,Wunderground v.1.15,2013-05-05 10:44:00,
2013-05-05 05:46:00,39.5,39.5,30.11,North,9,6.0,14.0,100,0.00,,,0.00,Wunderground v.1.15,2013-05-05 10:46:00,
2013-05-05 05:50:00,39.5,39.5,30.11,NNW,333,6.0,14.0,100,0.00,,,0.00,Wunderground v.1.15,2013-05-05 10:50:00,
2013-05-05 05:52:00,39.5,39.5,30.11,NNW,334,6.0,14.0,100,0.00,,,0.00,Wunderground v.1.15,2013-05-05 10:52:00,
2013-05-05 05:54:00,39.5,39.5,30.11,NNW,339,6.0,14.0,100,0.00,,,0.00,Wunderground v.1.15,2013-05-05 10:54:00,
2013-05-05 05:58:00,39.5,39.5,30.11,North,352,7.0,14.0,100,0.00,,,0.00,Wunderground v.1.15,2013-05-05 10:58:00,
2013-05-05 06:00:00,39.5,39.5,30.11,NNW,332,7.0,14.0,100,0.00,,,0.00,Wunderground v.1.15,2013-05-05 11:00:00,
2013-05-05 06:04:00,39.5,39.5,30.11,North,11,7.0,14.0,100,0.00,,,0.00,Wunderground v.1.15,2013-05-05 11:04:00,
2013-05-05 06:06:00,39.5,39.5,30.11,NNW,338,7.0,14.0,100,0.00,,,0.00,Wunderground v.1.15,2013-05-05 11:06:00,
2013-05-05 06:10:00,39.5,39.5,30.11,NNW,341,6.0,6.0,100,0.00,,,0.00,Wunderground v.1.15,2013-05-05 11:10:00,
2013-05-05 06:12:00,39.5,39.5,30.11,NNW,347,6.0,14.0,100,0.00,,,0.00,Wunderground v.1.15,2013-05-05 11:12:00,
2013-05-05 06:14:00,39.5,39.5,30.11,NNW,332,6.0,14.0,100,0.00,,,0.00,Wunderground v.1.15,2013-05-05 11:14:00,
2013-05-05 06:16:00,39.5,39.5,30.11,North,352,7.0,14.0,100,0.00,,,0.00,Wunderground v.1.15,2013-05-05 11:16:00,
2013-05-05 06:18:00,39.4,39.4,30.11,NNW,333,7.0,14.0,100,0.00,,,0.00,Wunderground v.1.15,2013-05-05 11:18:00,
2013-05-05 06:20:00,39.4,39.4,30.11,NNW,345,8.0,14.0,100,0.00,,,0.00,Wunderground v.1.15,2013-05-05 11:20:00,
2013-05-05 06:22:00,39.4,39.4,30.11,NNW,343,8.0,14.0,100,0.00,,,0.00,Wunderground v.1.15,2013-05-05 11:22:00,
2013-05-05 06:24:00,39.5,39.5,30.11,NNW,333,8.0,14.0,100,0.00,,,0.00,Wunderground v.1.15,2013-05-05 11:24:00,
2013-05-05 06:30:00,39.4,39.4,30.12,NNE,19,7.0,14.0,100,0.00,,,0.00,Wunderground v.1.15,2013-05-05 11:30:00,
2013-05-05 06:32:00,39.4,39.4,30.12,North,6,7.0,14.0,100,0.00,,,0.00,Wunderground v.1.15,2013-05-05 11:32:00,
2013-05-05 06:34:00,39.5,39.5,30.12,North,1,7.0,14.0,100,0.00,,,0.00,Wunderground v.1.15,2013-05-05 11:34:00,
2013-05-05 06:36:00,39.5,39.5,30.12,North,11,6.0,14.0,100,0.00,,,0.00,Wunderground v.1.15,2013-05-05 11:36:00,
2013-05-05 06:37:00,39.5,39.5,30.12,North,11,6.0,14.0,100,0.00,,,0.00,Wunderground v.1.15,2013-05-05 11:37:00,
2013-05-05 06:42:00,39.5,39.5,30.12,NNW,337,6.0,14.0,100,0.00,,,0.00,Wunderground v.1.15,2013-05-05 11:42:00,
2013-05-05 06:46:00,39.6,39.6,30.12,NNE,15,7.0,14.0,100,0.00,,,0.00,Wunderground v.1.15,2013-05-05 11:46:00,
2013-05-05 06:48:00,39.6,39.6,30.12,NNE,14,7.0,14.0,100,0.00,,,0.00,Wunderground v.1.15,2013-05-05 11:48:00,
2013-05-05 06:52:00,39.6,39.6,30.12,North,3,7.0,14.0,100,0.00,,,0.00,Wunderground v.1.15,2013-05-05 11:52:00,
2013-05-05 06:58:00,39.6,39.6,30.12,North,3,8.0,14.0,100,0.00,,,0.00,Wunderground v.1.15,2013-05-05 11:58:00,
2013-05-05 07:00:00,39.6,39.6,30.12,NNE,13,8.0,14.0,100,0.00,,,0.00,Wunderground v.1.15,2013-05-05 12:00:00,
2013-05-05 07:04:00,39.7,39.7,30.11,North,354,8.0,14.0,100,0.00,,,0.00,Wunderground v.1.15,2013-05-05 12:04:00,
2013-05-05 07:06:00,39.7,39.7,30.11,NNW,343,8.0,14.0,100,0.00,,,0.00,Wunderground v.1.15,2013-05-05 12:06:00,
2013-05-05 07:10:00,39.8,39.8,30.11,North,3,8.0,14.0,100,0.00,,,0.00,Wunderground v.1.15,2013-05-05 12:10:00,
2013-05-05 07:12:00,39.8,39.8,30.11,NNW,347,8.0,14.0,100,0.00,,,0.00,Wunderground v.1.15,2013-05-05 12:12:00,
2013-05-05 07:16:00,39.9,39.9,30.12,NNE,16,8.0,14.0,100,0.00,,,0.00,Wunderground v.1.15,2013-05-05 12:16:00,
2013-05-05 07:18:00,39.9,39.9,30.12,NNE,26,8.0,14.0,100,0.00,,,0.00,Wunderground v.1.15,2013-05-05 12:18:00,
2013-05-05 07:22:00,40.0,40.0,30.12,North,6,8.0,14.0,100,0.00,,,0.00,Wunderground v.1.15,2013-05-05 12:22:00,
2013-05-05 07:24:00,40.0,40.0,30.12,NNE,20,8.0,14.0,100,0.00,,,0.00,Wunderground v.1.15,2013-05-05 12:24:00,
2013-05-05 07:26:00,40.0,40.0,30.13,NE,36,8.0,14.0,100,0.00,,,0.00,Wunderground v.1.15,2013-05-05 12:26:00,
2013-05-05 07:30:00,40.1,40.1,30.13,NNE,20,7.0,14.0,100,0.00,,,0.00,Wunderground v.1.15,2013-05-05 12:30:00,
2013-05-05 07:32:00,40.0,40.0,30.13,NNE,23,7.0,14.0,100,0.00,,,0.00,Wunderground v.1.15,2013-05-05 12:32:00,
2013-05-05 07:34:00,40.1,40.1,30.13,NNE,29,7.0,14.0,100,0.00,,,0.00,Wunderground v.1.15,2013-05-05 12:34:00,
2013-05-05 07:36:00,40.1,40.1,30.13,NNE,21,7.0,14.0,100,0.00,,,0.00,Wunderground v.1.15,2013-05-05 12:36:00,
2013-05-05 07:38:00,40.1,40.1,30.13,NNE,18,7.0,14.0,100,0.00,,,0.00,Wunderground v.1.15,2013-05-05 12:38:00,
2013-05-05 07:44:00,40.1,40.1,30.13,NNE,22,6.0,14.0,100,0.00,,,0.00,Wunderground v.1.15,2013-05-05 12:44:00,
2013-05-05 07:46:00,40.2,40.2,30.13,NNE,18,6.0,14.0,100,0.00,,,0.00,Wunderground v.1.15,2013-05-05 12:46:00,
2013-05-05 07:48:00,40.2,40.2,30.13,NNE,13,6.0,14.0,100,0.00,,,0.00,Wunderground v.1.15,2013-05-05 12:48:00,
2013-05-05 07:54:00,40.4,40.4,30.13,North,6,6.0,14.0,100,0.00,,,0.00,Wunderground v.1.15,2013-05-05 12:54:00,
2013-05-05 07:56:00,40.5,40.5,30.12,NNW,345,6.0,14.0,100,0.00,,,0.00,Wunderground v.1.15,2013-05-05 12:56:00,
2013-05-05 07:58:00,40.6,40.6,30.12,North,360,6.0,14.0,100,0.00,,,0.00,Wunderground v.1.15,2013-05-05 12:58:00,
2013-05-05 08:00:00,40.7,40.7,30.12,North,352,7.0,7.0,100,0.00,,,0.00,Wunderground v.1.15,2013-05-05 13:00:00,
2013-05-05 08:04:00,40.9,40.9,30.13,North,350,7.0,14.0,100,0.00,,,0.01,Wunderground v.1.15,2013-05-05 13:04:00,
2013-05-05 08:06:00,41.0,41.0,30.13,NNE,25,7.0,14.0,100,0.00,,,0.01,Wunderground v.1.15,2013-05-05 13:06:00,
2013-05-05 08:08:00,41.0,41.0,30.13,NNE,16,8.0,14.0,100,0.00,,,0.01,Wunderground v.1.15,2013-05-05 13:08:00,
2013-05-05 08:10:00,41.2,40.9,30.13,NNE,19,8.0,14.0,99,0.00,,,0.01,Wunderground v.1.15,2013-05-05 13:10:00,
2013-05-05 08:14:00,41.3,41.0,30.13,NNE,14,8.0,14.0,99,0.00,,,0.01,Wunderground v.1.15,2013-05-05 13:14:00,
2013-05-05 08:16:00,41.4,41.1,30.13,NNE,19,9.0,14.0,99,0.00,,,0.01,Wunderground v.1.15,2013-05-05 13:16:00,
2013-05-05 08:18:00,41.5,41.2,30.13,NNE,18,9.0,14.0,99,0.00,,,0.01,Wunderground v.1.15,2013-05-05 13:18:00,
2013-05-05 08:22:00,41.6,41.3,30.13,North,10,9.0,14.0,99,0.00,,,0.01,Wunderground v.1.15,2013-05-05 13:22:00,
2013-05-05 08:24:00,41.6,41.3,30.13,North,10,9.0,14.0,99,0.00,,,0.01,Wunderground v.1.15,2013-05-05 13:24:00,
2013-05-05 08:30:00,41.8,41.5,30.13,North,11,9.0,14.0,99,0.00,,,0.01,Wunderground v.1.15,2013-05-05 13:30:00,
2013-05-05 08:34:00,41.9,41.6,30.13,NNE,18,10.0,14.0,99,0.00,,,0.01,Wunderground v.1.15,2013-05-05 13:34:00,
2013-05-05 08:36:00,41.9,41.6,30.13,North,8,10.0,14.0,99,0.00,,,0.01,Wunderground v.1.15,2013-05-05 13:36:00,
2013-05-05 08:38:00,41.9,41.4,30.13,NNE,18,10.0,14.0,98,0.00,,,0.01,Wunderground v.1.15,2013-05-05 13:38:00,
2013-05-05 08:40:00,42.1,41.8,30.13,North,1,10.0,10.0,99,0.00,,,0.01,Wunderground v.1.15,2013-05-05 13:40:00,
2013-05-05 08:44:00,42.2,41.7,30.13,NNE,12,10.0,14.0,98,0.00,,,0.01,Wunderground v.1.15,2013-05-05 13:44:00,
2013-05-05 08:46:00,42.2,41.7,30.13,NNE,19,11.0,14.0,98,0.00,,,0.01,Wunderground v.1.15,2013-05-05 13:46:00,
2013-05-05 08:48:00,42.2,41.7,30.13,NNE,20,11.0,14.0,98,0.00,,,0.01,Wunderground v.1.15,2013-05-05 13:48:00,
2013-05-05 08:52:00,42.2,41.7,30.14,NNE,27,11.0,12.0,98,0.00,,,0.01,Wunderground v.1.15,2013-05-05 13:52:00,
2013-05-05 08:54:00,42.2,41.7,30.13,NNE,16,11.0,14.0,98,0.00,,,0.01,Wunderground v.1.15,2013-05-05 13:54:00,
2013-05-05 08:56:00,42.2,41.7,30.13,North,10,10.0,14.0,98,0.00,,,0.01,Wunderground v.1.15,2013-05-05 13:56:00,
2013-05-05 09:00:00,42.3,41.8,30.13,NNE,27,10.0,14.0,98,0.00,,,0.01,Wunderground v.1.15,2013-05-05 14:00:00,
2013-05-05 09:06:00,42.4,41.9,30.13,North,360,10.0,14.0,98,0.00,,,0.01,Wunderground v.1.15,2013-05-05 14:06:00,
2013-05-05 09:10:00,42.3,41.5,30.13,NNE,13,10.0,10.0,97,0.00,,,0.01,Wunderground v.1.15,2013-05-05 14:10:00,
2013-05-05 09:12:00,42.4,41.9,30.13,NNE,18,10.0,11.0,98,0.00,,,0.01,Wunderground v.1.15,2013-05-05 14:12:00,
2013-05-05 09:16:00,42.4,41.9,30.13,NE,38,10.0,14.0,98,0.00,,,0.01,Wunderground v.1.15,2013-05-05 14:16:00,
2013-05-05 09:18:00,42.4,41.9,30.13,NNE,25,10.0,14.0,98,0.00,,,0.01,Wunderground v.1.15,2013-05-05 14:18:00,
2013-05-05 09:22:00,42.4,41.9,30.13,NNW,344,10.0,14.0,98,0.00,,,0.01,Wunderground v.1.15,2013-05-05 14:22:00,
2013-05-05 09:24:00,42.4,41.9,30.13,NNE,21,10.0,14.0,98,0.00,,,0.01,Wunderground v.1.15,2013-05-05 14:24:00,
2013-05-05 09:27:00,42.6,42.1,30.13,North,9,9.0,14.0,98,0.00,,,0.01,Wunderground v.1.15,2013-05-05 14:27:00,
2013-05-05 09:30:00,42.7,42.2,30.13,NNE,23,9.0,14.0,98,0.00,,,0.01,Wunderground v.1.15,2013-05-05 14:30:00,
2013-05-05 09:34:00,42.8,42.3,30.13,North,11,10.0,14.0,98,0.00,,,0.01,Wunderground v.1.15,2013-05-05 14:34:00,
2013-05-05 09:36:00,42.9,42.4,30.13,NNE,26,10.0,14.0,98,0.00,,,0.01,Wunderground v.1.15,2013-05-05 14:36:00,
2013-05-05 09:38:00,43.0,42.5,30.13,North,8,10.0,14.0,98,0.00,,,0.01,Wunderground v.1.15,2013-05-05 14:38:00,
2013-05-05 09:40:00,43.2,42.7,30.13,NNE,20,10.0,10.0,98,0.00,,,0.01,Wunderground v.1.15,2013-05-05 14:40:00,
2013-05-05 09:46:00,43.4,42.9,30.13,North,358,9.0,14.0,98,0.00,,,0.01,Wunderground v.1.15,2013-05-05 14:46:00,
2013-05-05 09:50:00,43.3,42.8,30.13,NNE,13,10.0,10.0,98,0.00,,,0.01,Wunderground v.1.15,2013-05-05 14:50:00,
2013-05-05 09:51:00,43.4,42.9,30.13,NNE,26,10.0,14.0,98,0.00,,,0.01,Wunderground v.1.15,2013-05-05 14:51:00,
2013-05-05 09:54:00,43.3,42.8,30.13,NNE,16,10.0,14.0,98,0.00,,,0.01,Wunderground v.1.15,2013-05-05 14:54:00,
2013-05-05 09:58:00,43.2,42.7,30.12,North,355,10.0,14.0,98,0.00,,,0.01,Wunderground v.1.15,2013-05-05 14:58:00,
2013-05-05 10:00:00,43.2,42.7,30.12,NNE,16,10.0,10.0,98,0.00,,,0.01,Wunderground v.1.15,2013-05-05 15:00:00,
2013-05-05 10:02:00,43.3,42.8,30.13,NNE,22,9.0,14.0,98,0.00,,,0.01,Wunderground v.1.15,2013-05-05 15:02:00,
2013-05-05 10:04:00,43.3,42.8,30.13,NNE,20,9.0,14.0,98,0.00,,,0.01,Wunderground v.1.15,2013-05-05 15:04:00,
2013-05-05 10:06:00,43.5,43.0,30.12,North,4,9.0,14.0,98,0.00,,,0.01,Wunderground v.1.15,2013-05-05 15:06:00,
2013-05-05 10:10:00,43.8,43.3,30.12,North,9,9.0,14.0,98,0.00,,,0.01,Wunderground v.1.15,2013-05-05 15:10:00,
2013-05-05 10:12:00,44.0,43.5,30.12,North,11,8.0,14.0,98,0.00,,,0.01,Wunderground v.1.15,2013-05-05 15:12:00,
2013-05-05 10:16:00,44.1,43.6,30.12,North,11,9.0,14.0,98,0.00,,,0.01,Wunderground v.1.15,2013-05-05 15:16:00,
2013-05-05 10:17:00,44.2,43.7,30.12,NNE,18,9.0,14.0,98,0.00,,,0.01,Wunderground v.1.15,2013-05-05 15:17:00,
2013-05-05 10:22:00,44.6,44.1,30.12,NNE,16,10.0,14.0,98,0.00,,,0.01,Wunderground v.1.15,2013-05-05 15:22:00,
2013-05-05 10:28:00,44.6,43.8,30.13,NNE,18,9.0,14.0,97,0.00,,,0.01,Wunderground v.1.15,2013-05-05 15:28:00,
2013-05-05 10:30:00,44.8,44.3,30.13,North,9,9.0,14.0,98,0.00,,,0.01,Wunderground v.1.15,2013-05-05 15:30:00,
2013-05-05 10:32:00,44.9,44.4,30.13,NNE,12,9.0,14.0,98,0.00,,,0.01,Wunderground v.1.15,2013-05-05 15:32:00,
2013-05-05 10:34:00,44.9,44.4,30.13,North,11,10.0,14.0,98,0.00,,,0.01,Wunderground v.1.15,2013-05-05 15:34:00,
2013-05-05 10:36:00,44.9,44.1,30.13,North,5,10.0,14.0,97,0.00,,,0.01,Wunderground v.1.15,2013-05-05 15:36:00,
2013-05-05 10:40:00,44.9,44.1,30.13,North,9,9.0,14.0,97,0.00,,,0.01,Wunderground v.1.15,2013-05-05 15:40:00,
2013-05-05 10:42:00,45.0,44.2,30.13,North,360,9.0,14.0,97,0.00,,,0.01,Wunderground v.1.15,2013-05-05 15:42:00,
2013-05-05 10:46:00,44.9,44.1,30.13,North,4,9.0,14.0,97,0.00,,,0.01,Wunderground v.1.15,2013-05-05 15:46:00,
2013-05-05 10:48:00,44.9,44.1,30.13,NNE,13,9.0,14.0,97,0.00,,,0.01,Wunderground v.1.15,2013-05-05 15:48:00,
2013-05-05 10:50:00,44.9,43.8,30.13,NNE,26,9.0,14.0,96,0.00,,,0.01,Wunderground v.1.15,2013-05-05 15:50:00,
2013-05-05 10:52:00,44.9,44.1,30.13,NNE,18,9.0,14.0,97,0.00,,,0.01,Wunderground v.1.15,2013-05-05 15:52:00,
2013-05-05 10:54:00,44.9,44.1,30.13,North,359,9.0,14.0,97,0.00,,,0.01,Wunderground v.1.15,2013-05-05 15:54:00,
2013-05-05 10:56:00,45.0,44.2,30.13,North,356,10.0,14.0,97,0.00,,,0.01,Wunderground v.1.15,2013-05-05 15:56:00,
2013-05-05 11:00:00,45.2,44.4,30.13,NNE,28,9.0,9.0,97,0.00,,,0.01,Wunderground v.1.15,2013-05-05 16:00:00,
2013-05-05 11:02:00,45.2,44.4,30.13,NNE,15,8.0,14.0,97,0.00,,,0.01,Wunderground v.1.15,2013-05-05 16:02:00,
2013-05-05 11:06:00,45.3,44.5,30.13,North,11,8.0,14.0,97,0.00,,,0.01,Wunderground v.1.15,2013-05-05 16:06:00,
2013-05-05 11:08:00,45.2,44.1,30.13,NNE,15,8.0,14.0,96,0.00,,,0.01,Wunderground v.1.15,2013-05-05 16:08:00,
2013-05-05 11:10:00,45.2,44.1,30.13,North,10,8.0,14.0,96,0.00,,,0.01,Wunderground v.1.15,2013-05-05 16:10:00,
2013-05-05 11:12:00,45.2,44.4,30.13,North,1,9.0,14.0,97,0.00,,,0.01,Wunderground v.1.15,2013-05-05 16:12:00,
2013-05-05 11:16:00,45.3,44.5,30.13,NNE,25,9.0,14.0,97,0.00,,,0.01,Wunderground v.1.15,2013-05-05 16:16:00,
2013-05-05 11:18:00,45.4,44.6,30.13,NNE,25,9.0,14.0,97,0.00,,,0.01,Wunderground v.1.15,2013-05-05 16:18:00,
2013-05-05 11:22:00,45.4,44.6,30.13,NNE,31,10.0,14.0,97,0.00,,,0.01,Wunderground v.1.15,2013-05-05 16:22:00,
2013-05-05 11:26:00,45.5,44.7,30.13,North,3,9.0,14.0,97,0.00,,,0.01,Wunderground v.1.15,2013-05-05 16:26:00,
2013-05-05 11:28:00,45.6,44.8,30.13,NNE,13,9.0,14.0,97,0.00,,,0.01,Wunderground v.1.15,2013-05-05 16:28:00,
2013-05-05 11:33:00,45.7,44.9,30.13,North,3,9.0,14.0,97,0.00,,,0.01,Wunderground v.1.15,2013-05-05 16:33:00,
2013-05-05 11:38:00,45.9,45.1,30.13,NNE,18,10.0,14.0,97,0.00,,,0.01,Wunderground v.1.15,2013-05-05 16:38:00,
2013-05-05 11:40:00,46.0,45.2,30.13,NNE,18,10.0,14.0,97,0.00,,,0.01,Wunderground v.1.15,2013-05-05 16:40:00,
2013-05-05 11:41:00,46.2,45.4,30.13,North,1,10.0,14.0,97,0.00,,,0.01,Wunderground v.1.15,2013-05-05 16:41:00,
2013-05-05 11:44:00,46.3,45.5,30.13,NNE,13,9.0,14.0,97,0.00,,,0.01,Wunderground v.1.15,2013-05-05 16:44:00,
2013-05-05 11:46:00,46.4,45.6,30.13,NNE,18,9.0,14.0,97,0.00,,,0.01,Wunderground v.1.15,2013-05-05 16:46:00,
2013-05-05 11:48:00,46.6,45.8,30.13,NNE,15,9.0,14.0,97,0.00,,,0.01,Wunderground v.1.15,2013-05-05 16:48:00,
2013-05-05 11:54:00,46.6,45.5,30.13,NNE,33,10.0,14.0,96,0.00,,,0.01,Wunderground v.1.15,2013-05-05 16:54:00,
2013-05-05 11:56:00,46.5,45.4,30.13,NNE,20,10.0,14.0,96,0.00,,,0.01,Wunderground v.1.15,2013-05-05 16:56:00,
2013-05-05 12:00:00,46.4,45.3,30.13,NNE,21,10.0,10.0,96,0.00,,,0.01,Wunderground v.1.15,2013-05-05 17:00:00,
2013-05-05 12:06:00,46.4,45.6,30.13,NNE,21,10.0,14.0,97,0.00,,,0.01,Wunderground v.1.15,2013-05-05 17:06:00,
2013-05-05 12:08:00,46.5,45.7,30.13,NNE,23,10.0,14.0,97,0.00,,,0.01,Wunderground v.1.15,2013-05-05 17:08:00,
2013-05-05 12:10:00,46.5,45.4,30.13,NNE,16,10.0,12.0,96,0.00,,,0.01,Wunderground v.1.15,2013-05-05 17:10:00,
2013-05-05 12:12:00,46.4,45.3,30.13,NNE,32,11.0,12.0,96,0.00,,,0.01,Wunderground v.1.15,2013-05-05 17:12:00,
2013-05-05 12:14:00,46.3,45.2,30.12,NNE,16,10.0,12.0,96,0.00,,,0.01,Wunderground v.1.15,2013-05-05 17:14:00,
2013-05-05 12:16:00,46.3,45.2,30.12,NNE,32,10.0,12.0,96,0.00,,,0.01,Wunderground v.1.15,2013-05-05 17:16:00,
2013-05-05 12:18:00,46.4,45.6,30.12,NNE,25,10.0,12.0,97,0.00,,,0.01,Wunderground v.1.15,2013-05-05 17:18:00,
2013-05-05 12:22:00,46.4,45.6,30.12,NNE,22,9.0,10.0,97,0.00,,,0.01,Wunderground v.1.15,2013-05-05 17:22:00,
2013-05-05 12:24:00,46.4,45.6,30.12,NNE,21,9.0,10.0,97,0.00,,,0.01,Wunderground v.1.15,2013-05-05 17:24:00,
2013-05-05 12:28:00,46.2,45.1,30.12,NNE,18,10.0,10.0,96,0.00,,,0.01,Wunderground v.1.15,2013-05-05 17:28:00,
2013-05-05 12:33:00,46.2,45.4,30.12,NNE,26,10.0,11.0,97,0.00,,,0.01,Wunderground v.1.15,2013-05-05 17:33:00,
2013-05-05 12:36:00,46.2,45.4,30.12,NNE,27,10.0,11.0,97,0.00,,,0.01,Wunderground v.1.15,2013-05-05 17:36:00,
2013-05-05 12:40:00,46.2,45.4,30.12,North,3,9.0,9.0,97,0.00,,,0.01,Wunderground v.1.15,2013-05-05 17:40:00,
2013-05-05 12:42:00,46.2,45.4,30.12,NNE,13,9.0,10.0,97,0.00,,,0.01,Wunderground v.1.15,2013-05-05 17:42:00,
2013-05-05 12:44:00,46.3,45.5,30.12,NNE,31,9.0,10.0,97,0.00,,,0.01,Wunderground v.1.15,2013-05-05 17:44:00,
2013-05-05 12:50:00,46.3,45.5,30.12,NNE,27,9.0,10.0,97,0.00,,,0.01,Wunderground v.1.15,2013-05-05 17:50:00,
2013-05-05 12:54:00,46.4,45.6,30.12,NNE,20,9.0,10.0,97,0.00,,,0.01,Wunderground v.1.15,2013-05-05 17:54:00,
2013-05-05 12:56:00,46.4,45.6,30.12,NNE,13,9.0,10.0,97,0.00,,,0.01,Wunderground v.1.15,2013-05-05 17:56:00,
2013-05-05 12:58:00,46.6,45.8,30.12,NNE,28,8.0,10.0,97,0.00,,,0.01,Wunderground v.1.15,2013-05-05 17:58:00,
2013-05-05 13:03:00,46.9,46.1,30.12,NNE,27,8.0,13.0,97,0.00,,,0.01,Wunderground v.1.15,2013-05-05 18:03:00,
2013-05-05 13:05:00,47.0,45.9,30.12,NNE,27,8.0,13.0,96,0.00,,,0.01,Wunderground v.1.15,2013-05-05 18:05:00,
2013-05-05 13:07:00,47.1,46.0,30.12,NNE,26,9.0,13.0,96,0.00,,,0.01,Wunderground v.1.15,2013-05-05 18:07:00,
2013-05-05 13:10:00,47.3,46.5,30.12,NNE,23,9.0,13.0,97,0.00,,,0.01,Wunderground v.1.15,2013-05-05 18:10:00,
2013-05-05 13:12:00,47.5,46.4,30.12,NNE,20,9.0,13.0,96,0.00,,,0.01,Wunderground v.1.15,2013-05-05 18:12:00,
2013-05-05 13:14:00,47.5,46.4,30.11,NNE,27,8.0,13.0,96,0.00,,,0.01,Wunderground v.1.15,2013-05-05 18:14:00,
2013-05-05 13:18:00,47.7,46.6,30.11,NNE,23,8.0,13.0,96,0.00,,,0.01,Wunderground v.1.15,2013-05-05 18:18:00,
2013-05-05 13:20:00,47.8,46.7,30.11,NNE,21,8.0,8.0,96,0.00,,,0.01,Wunderground v.1.15,2013-05-05 18:20:00,
2013-05-05 13:24:00,47.7,46.3,30.11,NNE,13,8.0,13.0,95,0.00,,,0.01,Wunderground v.1.15,2013-05-05 18:24:00,
2013-05-05 13:26:00,47.9,46.8,30.11,NNE,30,8.0,13.0,96,0.00,,,0.01,Wunderground v.1.15,2013-05-05 18:26:00,
2013-05-05 13:32:00,48.0,46.6,30.11,NNE,25,7.0,13.0,95,0.00,,,0.01,Wunderground v.1.15,2013-05-05 18:32:00,
2013-05-05 13:34:00,48.1,46.7,30.11,NNE,26,8.0,13.0,95,0.00,,,0.01,Wunderground v.1.15,2013-05-05 18:34:00,
2013-05-05 13:35:00,48.2,46.8,30.11,NNW,333,8.0,13.0,95,0.00,,,0.01,Wunderground v.1.15,2013-05-05 18:35:00,
2013-05-05 13:37:00,48.3,47.2,30.11,NNE,25,8.0,13.0,96,0.00,,,0.01,Wunderground v.1.15,2013-05-05 18:37:00,
2013-05-05 13:42:00,48.5,47.1,30.11,NNE,15,8.0,13.0,95,0.00,,,0.01,Wunderground v.1.15,2013-05-05 18:42:00,
2013-05-05 13:44:00,48.4,46.8,30.11,NNE,13,8.0,13.0,94,0.00,,,0.01,Wunderground v.1.15,2013-05-05 18:44:00,
2013-05-05 13:50:00,48.7,47.1,30.11,NNE,12,8.0,8.0,94,0.00,,,0.01,Wunderground v.1.15,2013-05-05 18:50:00,
2013-05-05 13:52:00,48.8,47.2,30.11,North,9,8.0,13.0,94,0.00,,,0.01,Wunderground v.1.15,2013-05-05 18:52:00,
2013-05-05 13:54:00,48.9,47.2,30.11,North,9,8.0,13.0,94,0.00,,,0.01,Wunderground v.1.15,2013-05-05 18:54:00,
2013-05-05 13:58:00,49.1,47.4,30.11,NNE,25,7.0,13.0,94,0.00,,,0.01,Wunderground v.1.15,2013-05-05 18:58:00,
2013-05-05 14:00:00,49.2,47.5,30.11,North,360,6.0,13.0,94,0.00,,,0.01,Wunderground v.1.15,2013-05-05 19:00:00,
2013-05-05 14:04:00,49.2,47.3,30.11,North,356,6.0,13.0,93,0.00,,,0.01,Wunderground v.1.15,2013-05-05 19:04:00,
2013-05-05 14:08:00,49.3,47.6,30.11,North,8,7.0,13.0,94,0.00,,,0.01,Wunderground v.1.15,2013-05-05 19:08:00,
2013-05-05 14:10:00,49.3,47.4,30.11,NNW,343,7.0,7.0,93,0.00,,,0.01,Wunderground v.1.15,2013-05-05 19:10:00,
2013-05-05 14:12:00,49.3,47.4,30.11,NNW,330,7.0,13.0,93,0.00,,,0.01,Wunderground v.1.15,2013-05-05 19:12:00,
2013-05-05 14:14:00,49.3,47.4,30.11,NNW,347,7.0,13.0,93,0.00,,,0.01,Wunderground v.1.15,2013-05-05 19:14:00,
2013-05-05 14:18:00,49.4,47.7,30.10,NNE,33,7.0,13.0,94,0.00,,,0.01,Wunderground v.1.15,2013-05-05 19:18:00,
2013-05-05 14:20:00,49.6,47.9,30.10,North,354,8.0,13.0,94,0.00,,,0.01,Wunderground v.1.15,2013-05-05 19:20:00,
2013-05-05 14:24:00,49.7,47.8,30.10,NNW,343,8.0,13.0,93,0.00,,,0.01,Wunderground v.1.15,2013-05-05 19:24:00,
2013-05-05 14:26:00,49.8,48.1,30.10,NNW,337,8.0,13.0,94,0.00,,,0.01,Wunderground v.1.15,2013-05-05 19:26:00,
2013-05-05 14:28:00,49.8,47.9,30.10,North,350,7.0,13.0,93,0.00,,,0.01,Wunderground v.1.15,2013-05-05 19:28:00,
2013-05-05 14:30:00,49.9,48.0,30.10,NNE,15,7.0,13.0,93,0.00,,,0.01,Wunderground v.1.15,2013-05-05 19:30:00,
2013-05-05 14:34:00,50.1,48.4,30.10,North,354,7.0,13.0,94,0.00,,,0.01,Wunderground v.1.15,2013-05-05 19:34:00,
2013-05-05 14:36:00,50.1,48.2,30.10,North,355,7.0,13.0,93,0.00,,,0.01,Wunderground v.1.15,2013-05-05 19:36:00,
2013-05-05 14:38:00,50.2,48.3,30.10,NNW,330,7.0,13.0,93,0.00,,,0.01,Wunderground v.1.15,2013-05-05 19:38:00,
2013-05-05 14:42:00,50.3,48.4,30.10,NNW,345,7.0,13.0,93,0.00,,,0.01,Wunderground v.1.15,2013-05-05 19:42:00,
2013-05-05 14:44:00,50.4,48.2,30.10,NNE,13,8.0,13.0,92,0.00,,,0.01,Wunderground v.1.15,2013-05-05 19:44:00,
2013-05-05 14:45:00,50.4,48.2,30.10,North,356,8.0,13.0,92,0.00,,,0.01,Wunderground v.1.15,2013-05-05 19:45:00,
2013-05-05 14:52:00,50.6,48.4,30.10,North,3,9.0,13.0,92,0.00,,,0.01,Wunderground v.1.15,2013-05-05 19:52:00,
2013-05-05 14:54:00,50.6,48.4,30.10,NNW,347,9.0,13.0,92,0.00,,,0.01,Wunderground v.1.15,2013-05-05 19:54:00,
2013-05-05 15:00:00,50.9,48.7,30.09,NNE,24,8.0,13.0,92,0.00,,,0.01,Wunderground v.1.15,2013-05-05 20:00:00,
2013-05-05 15:02:00,50.8,48.3,30.09,North,350,8.0,13.0,91,0.00,,,0.01,Wunderground v.1.15,2013-05-05 20:02:00,
2013-05-05 15:06:00,50.8,48.3,30.09,North,360,8.0,13.0,91,0.00,,,0.01,Wunderground v.1.15,2013-05-05 20:06:00,
2013-05-05 15:08:00,50.8,48.6,30.09,NNW,347,8.0,13.0,92,0.00,,,0.01,Wunderground v.1.15,2013-05-05 20:08:00,
2013-05-05 15:12:00,51.0,48.8,30.09,NNW,343,7.0,13.0,92,0.00,,,0.01,Wunderground v.1.15,2013-05-05 20:12:00,
2013-05-05 15:14:00,51.0,48.8,30.09,NNW,348,7.0,13.0,92,0.00,,,0.01,Wunderground v.1.15,2013-05-05 20:14:00,
2013-05-05 15:16:00,50.9,48.4,30.09,North,11,8.0,13.0,91,0.00,,,0.01,Wunderground v.1.15,2013-05-05 20:16:00,
2013-05-05 15:18:00,50.9,48.4,30.09,North,9,8.0,13.0,91,0.00,,,0.01,Wunderground v.1.15,2013-05-05 20:18:00,
2013-05-05 15:20:00,50.8,48.6,30.09,NNW,335,8.0,8.0,92,0.00,,,0.01,Wunderground v.1.15,2013-05-05 20:20:00,
2013-05-05 15:24:00,50.8,48.3,30.09,NNW,327,8.0,13.0,91,0.00,,,0.01,Wunderground v.1.15,2013-05-05 20:24:00,
2013-05-05 15:26:00,50.8,48.6,30.09,North,5,8.0,13.0,92,0.00,,,0.01,Wunderground v.1.15,2013-05-05 20:26:00,
2013-05-05 15:28:00,50.8,48.3,30.09,NNW,338,8.0,13.0,91,0.00,,,0.01,Wunderground v.1.15,2013-05-05 20:28:00,
2013-05-05 15:32:00,50.8,48.3,30.09,North,4,8.0,13.0,91,0.00,,,0.01,Wunderground v.1.15,2013-05-05 20:32:00,
2013-05-05 15:34:00,50.9,48.4,30.09,NNW,337,8.0,13.0,91,0.00,,,0.01,Wunderground v.1.15,2013-05-05 20:34:00,
2013-05-05 15:38:00,50.9,48.4,30.08,NNE,18,9.0,13.0,91,0.00,,,0.01,Wunderground v.1.15,2013-05-05 20:38:00,
2013-05-05 15:40:00,50.9,48.4,30.08,NNW,342,8.0,13.0,91,0.00,,,0.01,Wunderground v.1.15,2013-05-05 20:40:00,
2013-05-05 15:42:00,50.9,48.4,30.08,NW,318,9.0,13.0,91,0.00,,,0.01,Wunderground v.1.15,2013-05-05 20:42:00,
2013-05-05 15:46:00,51.0,48.5,30.08,North,355,8.0,13.0,91,0.00,,,0.01,Wunderground v.1.15,2013-05-05 20:46:00,
2013-05-05 15:52:00,51.2,49.0,30.08,NNW,342,8.0,13.0,92,0.00,,,0.01,Wunderground v.1.15,2013-05-05 20:52:00,
2013-05-05 15:54:00,51.3,48.8,30.08,NNW,335,7.0,13.0,91,0.00,,,0.01,Wunderground v.1.15,2013-05-05 20:54:00,
2013-05-05 15:57:00,51.4,48.9,30.08,NNW,337,7.0,13.0,91,0.00,,,0.01,Wunderground v.1.15,2013-05-05 20:57:00,
2013-05-05 16:00:00,51.4,48.9,30.08,NNE,16,7.0,13.0,91,0.00,,,0.01,Wunderground v.1.15,2013-05-05 21:00:00,
2013-05-05 16:04:00,51.4,48.6,30.08,NNW,336,7.0,13.0,90,0.00,,,0.01,Wunderground v.1.15,2013-05-05 21:04:00,
2013-05-05 16:08:00,51.4,48.9,30.08,NNW,339,7.0,13.0,91,0.00,,,0.01,Wunderground v.1.15,2013-05-05 21:08:00,
2013-05-05 16:12:00,51.5,49.0,30.08,North,1,8.0,13.0,91,0.00,,,0.01,Wunderground v.1.15,2013-05-05 21:12:00,
2013-05-05 16:14:00,51.6,48.8,30.08,NNE,27,8.0,13.0,90,0.00,,,0.01,Wunderground v.1.15,2013-05-05 21:14:00,
2013-05-05 16:16:00,51.8,49.3,30.08,NNE,19,8.0,13.0,91,0.00,,,0.01,Wunderground v.1.15,2013-05-05 21:16:00,
2013-05-05 16:18:00,51.8,49.3,30.08,North,1,9.0,13.0,91,0.00,,,0.01,Wunderground v.1.15,2013-05-05 21:18:00,
2013-05-05 16:20:00,51.9,49.1,30.08,NNW,339,8.0,8.0,90,0.00,,,0.01,Wunderground v.1.15,2013-05-05 21:20:00,
2013-05-05 16:24:00,51.8,49.0,30.08,NNE,27,8.0,13.0,90,0.00,,,0.01,Wunderground v.1.15,2013-05-05 21:24:00,
2013-05-05 16:25:00,51.7,48.9,30.08,NNW,345,7.0,13.0,90,0.00,,,0.01,Wunderground v.1.15,2013-05-05 21:25:00,
2013-05-05 16:27:00,51.6,48.8,30.07,North,355,7.0,13.0,90,0.00,,,0.01,Wunderground v.1.15,2013-05-05 21:27:00,
2013-05-05 16:30:00,51.7,48.9,30.07,North,5,7.0,13.0,90,0.00,,,0.01,Wunderground v.1.15,2013-05-05 21:30:00,
2013-05-05 16:32:00,51.7,48.9,30.07,NNW,342,7.0,13.0,90,0.00,,,0.01,Wunderground v.1.15,2013-05-05 21:32:00,
2013-05-05 16:34:00,51.8,49.0,30.07,North,5,7.0,13.0,90,0.00,,,0.01,Wunderground v.1.15,2013-05-05 21:34:00,
2013-05-05 16:40:00,51.8,49.0,30.07,NNW,340,8.0,13.0,90,0.00,,,0.01,Wunderground v.1.15,2013-05-05 21:40:00,
2013-05-05 16:42:00,51.7,48.9,30.07,North,352,8.0,13.0,90,0.00,,,0.01,Wunderground v.1.15,2013-05-05 21:42:00,
2013-05-05 16:44:00,51.7,48.9,30.07,North,11,8.0,13.0,90,0.00,,,0.01,Wunderground v.1.15,2013-05-05 21:44:00,
2013-05-05 16:46:00,51.7,48.9,30.07,NNE,15,8.0,13.0,90,0.00,,,0.01,Wunderground v.1.15,2013-05-05 21:46:00,
2013-05-05 16:52:00,51.5,48.7,30.07,NNW,330,8.0,13.0,90,0.00,,,0.01,Wunderground v.1.15,2013-05-05 21:52:00,
2013-05-05 16:54:00,51.5,49.0,30.07,NNW,335,8.0,13.0,91,0.00,,,0.01,Wunderground v.1.15,2013-05-05 21:54:00,
2013-05-05 16:58:00,51.5,48.7,30.07,NNW,333,8.0,13.0,90,0.00,,,0.01,Wunderground v.1.15,2013-05-05 21:58:00,
2013-05-05 17:00:00,51.5,49.0,30.07,North,354,8.0,13.0,91,0.00,,,0.01,Wunderground v.1.15,2013-05-05 22:00:00,
2013-05-05 17:04:00,51.6,48.8,30.07,NNW,335,8.0,13.0,90,0.00,,,0.01,Wunderground v.1.15,2013-05-05 22:04:00,
2013-05-05 17:06:00,51.7,49.2,30.07,North,358,7.0,13.0,91,0.00,,,0.01,Wunderground v.1.15,2013-05-05 22:06:00,
2013-05-05 17:08:00,51.8,49.0,30.07,NNW,342,7.0,13.0,90,0.00,,,0.01,Wunderground v.1.15,2013-05-05 22:08:00,
2013-05-05 17:10:00,51.6,48.5,30.07,NNW,338,7.0,13.0,89,0.00,,,0.01,Wunderground v.1.15,2013-05-05 22:10:00,
2013-05-05 17:12:00,51.6,48.8,30.07,North,10,7.0,13.0,90,0.00,,,0.01,Wunderground v.1.15,2013-05-05 22:12:00,
2013-05-05 17:14:00,51.7,48.9,30.07,North,359,7.0,13.0,90,0.00,,,0.01,Wunderground v.1.15,2013-05-05 22:14:00,
2013-05-05 17:16:00,51.7,49.2,30.07,NNE,13,7.0,13.0,91,0.00,,,0.01,Wunderground v.1.15,2013-05-05 22:16:00,
2013-05-05 17:18:00,51.7,48.9,30.07,North,352,8.0,13.0,90,0.00,,,0.01,Wunderground v.1.15,2013-05-05 22:18:00,
2013-05-05 17:20:00,51.8,49.3,30.07,North,8,8.0,8.0,91,0.00,,,0.01,Wunderground v.1.15,2013-05-05 22:20:00,
2013-05-05 17:24:00,51.9,49.1,30.07,NNE,23,8.0,13.0,90,0.00,,,0.01,Wunderground v.1.15,2013-05-05 22:24:00,
2013-05-05 17:26:00,52.0,49.2,30.07,North,349,8.0,13.0,90,0.00,,,0.01,Wunderground v.1.15,2013-05-05 22:26:00,
2013-05-05 17:32:00,52.0,49.2,30.07,NNW,345,8.0,13.0,90,0.00,,,0.01,Wunderground v.1.15,2013-05-05 22:32:00,
2013-05-05 17:36:00,51.9,49.1,30.07,NNE,15,8.0,13.0,90,0.00,,,0.01,Wunderground v.1.15,2013-05-05 22:36:00,
2013-05-05 17:40:00,51.7,48.9,30.07,NNE,19,8.0,13.0,90,0.00,,,0.01,Wunderground v.1.15,2013-05-05 22:40:00,
2013-05-05 17:44:00,51.6,48.8,30.07,North,354,8.0,13.0,90,0.00,,,0.01,Wunderground v.1.15,2013-05-05 22:44:00,
2013-05-05 17:46:00,51.7,49.2,30.07,NNW,347,7.0,13.0,91,0.00,,,0.01,Wunderground v.1.15,2013-05-05 22:46:00,
2013-05-05 17:52:00,51.7,48.9,30.07,NNE,15,6.0,13.0,90,0.00,,,0.01,Wunderground v.1.15,2013-05-05 22:52:00,
2013-05-05 17:54:00,51.7,48.9,30.07,NNE,16,7.0,13.0,90,0.00,,,0.01,Wunderground v.1.15,2013-05-05 22:54:00,
2013-05-05 17:56:00,51.7,48.9,30.07,North,4,7.0,13.0,90,0.00,,,0.01,Wunderground v.1.15,2013-05-05 22:56:00,
2013-05-05 18:02:00,51.6,48.8,30.07,North,352,7.0,13.0,90,0.00,,,0.01,Wunderground v.1.15,2013-05-05 23:02:00,
2013-05-05 18:08:00,51.5,48.7,30.07,NNE,15,7.0,13.0,90,0.00,,,0.01,Wunderground v.1.15,2013-05-05 23:08:00,
2013-05-05 18:10:00,51.4,48.6,30.07,North,355,7.0,13.0,90,0.00,,,0.01,Wunderground v.1.15,2013-05-05 23:10:00,
2013-05-05 18:14:00,51.4,48.9,30.07,NNE,18,8.0,13.0,91,0.00,,,0.01,Wunderground v.1.15,2013-05-05 23:14:00,
2013-05-05 18:16:00,51.4,48.9,30.07,North,10,8.0,13.0,91,0.00,,,0.01,Wunderground v.1.15,2013-05-05 23:16:00,
2013-05-05 18:18:00,51.4,48.9,30.07,NNE,16,8.0,13.0,91,0.00,,,0.01,Wunderground v.1.15,2013-05-05 23:18:00,
2013-05-05 18:22:00,51.4,48.9,30.07,NNE,18,7.0,9.0,91,0.00,,,0.01,Wunderground v.1.15,2013-05-05 23:22:00,
2013-05-05 18:24:00,51.4,48.9,30.07,North,360,8.0,13.0,91,0.00,,,0.01,Wunderground v.1.15,2013-05-05 23:24:00,
2013-05-05 18:26:00,51.4,48.9,30.07,NNE,21,7.0,13.0,91,0.00,,,0.01,Wunderground v.1.15,2013-05-05 23:26:00,
2013-05-05 18:30:00,51.4,48.9,30.07,NNE,15,7.0,7.0,91,0.00,,,0.01,Wunderground v.1.15,2013-05-05 23:30:00,
2013-05-05 18:32:00,51.4,48.9,30.07,NNE,15,7.0,13.0,91,0.00,,,0.01,Wunderground v.1.15,2013-05-05 23:32:00,
2013-05-05 18:36:00,51.5,49.0,30.07,NNW,339,6.0,13.0,91,0.00,,,0.01,Wunderground v.1.15,2013-05-05 23:36:00,
2013-05-05 18:38:00,51.5,49.0,30.07,North,350,6.0,13.0,91,0.00,,,0.01,Wunderground v.1.15,2013-05-05 23:38:00,
2013-05-05 18:40:00,51.4,48.9,30.07,NNW,337,6.0,13.0,91,0.00,,,0.01,Wunderground v.1.15,2013-05-05 23:40:00,
2013-05-05 18:42:00,51.4,48.9,30.07,North,8,7.0,13.0,91,0.00,,,0.01,Wunderground v.1.15,2013-05-05 23:42:00,
2013-05-05 18:46:00,51.4,48.9,30.07,North,10,7.0,13.0,91,0.00,,,0.01,Wunderground v.1.15,2013-05-05 23:46:00,
2013-05-05 18:48:00,51.4,48.9,30.07,NNE,16,7.0,13.0,91,0.00,,,0.01,Wunderground v.1.15,2013-05-05 23:48:00,
2013-05-05 18:52:00,51.3,48.8,30.07,NNE,15,7.0,13.0,91,0.00,,,0.01,Wunderground v.1.15,2013-05-05 23:52:00,
2013-05-05 18:54:00,51.2,48.7,30.07,North,5,6.0,13.0,91,0.00,,,0.01,Wunderground v.1.15,2013-05-05 23:54:00,
2013-05-05 18:56:00,51.2,48.7,30.07,North,11,6.0,13.0,91,0.00,,,0.01,Wunderground v.1.15,2013-05-05 23:56:00,
2013-05-05 18:58:00,51.2,48.7,30.07,North,349,6.0,13.0,91,0.00,,,0.01,Wunderground v.1.15,2013-05-05 23:58:00,
2013-05-05 19:02:00,51.1,48.6,30.07,North,4,6.0,13.0,91,0.00,,,0.01,Wunderground v.1.15,2013-05-06 00:02:00,
2013-05-05 19:08:00,51.0,48.5,30.07,North,354,7.0,13.0,91,0.00,,,0.01,Wunderground v.1.15,2013-05-06 00:08:00,
2013-05-05 19:09:00,51.0,48.5,30.07,NNE,24,7.0,13.0,91,0.00,,,0.01,Wunderground v.1.15,2013-05-06 00:09:00,
2013-05-05 19:14:00,50.8,48.3,30.07,NNE,28,7.0,13.0,91,0.00,,,0.01,Wunderground v.1.15,2013-05-06 00:14:00,
2013-05-05 19:16:00,50.7,48.2,30.06,NNE,25,7.0,13.0,91,0.00,,,0.01,Wunderground v.1.15,2013-05-06 00:16:00,
2013-05-05 19:18:00,50.6,48.4,30.07,NNE,26,7.0,13.0,92,0.00,,,0.01,Wunderground v.1.15,2013-05-06 00:18:00,
2013-05-05 19:22:00,50.6,48.4,30.07,NNE,15,7.0,13.0,92,0.00,,,0.01,Wunderground v.1.15,2013-05-06 00:22:00,
2013-05-05 19:26:00,50.5,48.3,30.07,NNE,13,7.0,13.0,92,0.00,,,0.01,Wunderground v.1.15,2013-05-06 00:26:00,
2013-05-05 19:28:00,50.5,48.3,30.07,NNE,14,7.0,13.0,92,0.00,,,0.01,Wunderground v.1.15,2013-05-06 00:28:00,
2013-05-05 19:30:00,50.5,48.3,30.07,NNE,26,6.0,13.0,92,0.00,,,0.01,Wunderground v.1.15,2013-05-06 00:30:00,
2013-05-05 19:34:00,50.5,48.3,30.07,NNE,16,7.0,13.0,92,0.00,,,0.01,Wunderground v.1.15,2013-05-06 00:34:00,
2013-05-05 19:36:00,50.4,48.2,30.07,NNE,16,6.0,13.0,92,0.00,,,0.01,Wunderground v.1.15,2013-05-06 00:36:00,
2013-05-05 19:38:00,50.4,48.2,30.07,NNE,18,6.0,13.0,92,0.00,,,0.01,Wunderground v.1.15,2013-05-06 00:38:00,
2013-05-05 19:40:00,50.4,48.2,30.07,NNE,13,7.0,7.0,92,0.00,,,0.01,Wunderground v.1.15,2013-05-06 00:40:00,
2013-05-05 19:44:00,50.4,48.2,30.07,North,9,7.0,13.0,92,0.00,,,0.01,Wunderground v.1.15,2013-05-06 00:44:00,
2013-05-05 19:46:00,50.4,48.2,30.07,NNE,25,7.0,13.0,92,0.00,,,0.01,Wunderground v.1.15,2013-05-06 00:46:00,
2013-05-05 19:50:00,50.2,48.0,30.07,North,359,7.0,13.0,92,0.00,,,0.01,Wunderground v.1.15,2013-05-06 00:50:00,
2013-05-05 19:52:00,50.2,48.0,30.07,NNE,24,7.0,13.0,92,0.00,,,0.01,Wunderground v.1.15,2013-05-06 00:52:00,
2013-05-05 19:58:00,50.1,47.9,30.07,NNE,13,7.0,13.0,92,0.00,,,0.01,Wunderground v.1.15,2013-05-06 00:58:00,
2013-05-05 20:00:00,50.0,47.8,30.07,NNE,26,7.0,7.0,92,0.00,,,0.01,Wunderground v.1.15,2013-05-06 01:00:00,
2013-05-05 20:04:00,49.9,47.7,30.07,NNE,16,7.0,13.0,92,0.00,,,0.01,Wunderground v.1.15,2013-05-06 01:04:00,
2013-05-05 20:08:00,49.7,47.5,30.07,NNE,19,7.0,13.0,92,0.00,,,0.01,Wunderground v.1.15,2013-05-06 01:08:00,
2013-05-05 20:10:00,49.7,47.5,30.07,NNE,18,6.0,6.0,92,0.00,,,0.01,Wunderground v.1.15,2013-05-06 01:10:00,
2013-05-05 20:16:00,49.6,47.7,30.07,NNE,13,6.0,13.0,93,0.00,,,0.01,Wunderground v.1.15,2013-05-06 01:16:00,
2013-05-05 20:20:00,49.5,47.6,30.07,NNE,14,6.0,13.0,93,0.00,,,0.01,Wunderground v.1.15,2013-05-06 01:20:00,
2013-05-05 20:22:00,49.4,47.5,30.07,North,3,6.0,13.0,93,0.00,,,0.01,Wunderground v.1.15,2013-05-06 01:22:00,
2013-05-05 20:24:00,49.4,47.5,30.07,North,8,5.0,13.0,93,0.00,,,0.01,Wunderground v.1.15,2013-05-06 01:24:00,
2013-05-05 20:28:00,49.3,47.4,30.07,North,351,5.0,13.0,93,0.00,,,0.01,Wunderground v.1.15,2013-05-06 01:28:00,
2013-05-05 20:30:00,49.2,47.3,30.07,North,9,5.0,5.0,93,0.00,,,0.01,Wunderground v.1.15,2013-05-06 01:30:00,
2013-05-05 20:34:00,49.1,47.2,30.07,North,11,5.0,13.0,93,0.00,,,0.01,Wunderground v.1.15,2013-05-06 01:34:00,
2013-05-05 20:36:00,49.0,47.1,30.07,NNE,15,5.0,13.0,93,0.00,,,0.01,Wunderground v.1.15,2013-05-06 01:36:00,
2013-05-05 20:40:00,48.9,47.0,30.07,North,10,5.0,13.0,93,0.00,,,0.01,Wunderground v.1.15,2013-05-06 01:40:00,
2013-05-05 20:42:00,48.8,46.9,30.07,NNE,13,6.0,13.0,93,0.00,,,0.01,Wunderground v.1.15,2013-05-06 01:42:00,
2013-05-05 20:46:00,48.6,47.0,30.07,NNE,22,6.0,13.0,94,0.00,,,0.01,Wunderground v.1.15,2013-05-06 01:46:00,
2013-05-05 20:48:00,48.5,46.9,30.07,NNE,20,5.0,13.0,94,0.00,,,0.01,Wunderground v.1.15,2013-05-06 01:48:00,
2013-05-05 20:50:00,48.5,46.9,30.07,NNE,18,5.0,13.0,94,0.00,,,0.01,Wunderground v.1.15,2013-05-06 01:50:00,
2013-05-05 20:52:00,48.4,46.8,30.07,NNE,19,5.0,13.0,94,0.00,,,0.01,Wunderground v.1.15,2013-05-06 01:52:00,
2013-05-05 20:54:00,48.4,46.8,30.07,North,10,5.0,13.0,94,0.00,,,0.01,Wunderground v.1.15,2013-05-06 01:54:00,
2013-05-05 20:56:00,48.3,46.7,30.07,NNE,25,5.0,13.0,94,0.00,,,0.01,Wunderground v.1.15,2013-05-06 01:56:00,
2013-05-05 21:00:00,48.2,46.6,30.06,NNE,19,4.0,13.0,94,0.00,,,0.01,Wunderground v.1.15,2013-05-06 02:00:00,
2013-05-05 21:02:00,48.2,46.6,30.06,NNE,23,4.0,13.0,94,0.00,,,0.01,Wunderground v.1.15,2013-05-06 02:02:00,
2013-05-05 21:04:00,48.1,46.7,30.06,NNE,20,4.0,13.0,95,0.00,,,0.01,Wunderground v.1.15,2013-05-06 02:04:00,
2013-05-05 21:08:00,48.1,46.7,30.07,NNE,23,4.0,13.0,95,0.00,,,0.01,Wunderground v.1.15,2013-05-06 02:08:00,
2013-05-05 21:10:00,48.0,46.6,30.07,NNE,26,4.0,4.0,95,0.00,,,0.01,Wunderground v.1.15,2013-05-06 02:10:00,
2013-05-05 21:12:00,48.0,46.6,30.07,NNE,20,4.0,13.0,95,0.00,,,0.01,Wunderground v.1.15,2013-05-06 02:12:00,
2013-05-05 21:14:00,47.9,46.5,30.07,NNE,26,4.0,13.0,95,0.00,,,0.01,Wunderground v.1.15,2013-05-06 02:14:00,
2013-05-05 21:18:00,47.9,46.5,30.07,NNE,25,4.0,13.0,95,0.00,,,0.01,Wunderground v.1.15,2013-05-06 02:18:00,
2013-05-05 21:20:00,47.9,46.5,30.07,NNE,28,4.0,13.0,95,0.00,,,0.01,Wunderground v.1.15,2013-05-06 02:20:00,
2013-05-05 21:24:00,47.8,46.4,30.07,NE,36,5.0,13.0,95,0.00,,,0.01,Wunderground v.1.15,2013-05-06 02:24:00,
2013-05-05 21:26:00,47.8,46.4,30.06,NE,46,5.0,13.0,95,0.00,,,0.01,Wunderground v.1.15,2013-05-06 02:26:00,
2013-05-05 21:28:00,47.8,46.4,30.06,NE,44,4.0,13.0,95,0.00,,,0.01,Wunderground v.1.15,2013-05-06 02:28:00,
2013-05-05 21:32:00,47.9,46.5,30.07,NE,39,4.0,13.0,95,0.00,,,0.01,Wunderground v.1.15,2013-05-06 02:32:00,
2013-05-05 21:34:00,47.9,46.5,30.07,NNE,24,4.0,13.0,95,0.00,,,0.01,Wunderground v.1.15,2013-05-06 02:34:00,
2013-05-05 21:38:00,47.8,46.4,30.07,NNE,19,3.0,13.0,95,0.00,,,0.01,Wunderground v.1.15,2013-05-06 02:38:00,
2013-05-05 21:46:00,47.6,46.2,30.07,NE,39,3.0,13.0,95,0.00,,,0.01,Wunderground v.1.15,2013-05-06 02:46:00,
2013-05-05 21:48:00,47.7,46.3,30.07,NE,42,3.0,13.0,95,0.00,,,0.01,Wunderground v.1.15,2013-05-06 02:48:00,
2013-05-05 21:52:00,47.6,46.2,30.07,NNE,12,2.0,13.0,95,0.00,,,0.01,Wunderground v.1.15,2013-05-06 02:52:00,
2013-05-05 21:56:00,47.5,46.1,30.07,North,11,2.0,13.0,95,0.00,,,0.01,Wunderground v.1.15,2013-05-06 02:56:00,
2013-05-05 22:00:00,47.2,45.8,30.07,NNE,12,1.0,13.0,95,0.00,,,0.01,Wunderground v.1.15,2013-05-06 03:00:00,
2013-05-05 22:04:00,47.0,45.6,30.07,North,11,1.0,13.0,95,0.00,,,0.01,Wunderground v.1.15,2013-05-06 03:04:00,
2013-05-05 22:06:00,46.9,45.5,30.07,North,11,1.0,13.0,95,0.00,,,0.01,Wunderground v.1.15,2013-05-06 03:06:00,
2013-05-05 22:08:00,46.9,45.5,30.07,NNE,12,1.0,13.0,95,0.00,,,0.01,Wunderground v.1.15,2013-05-06 03:08:00,
2013-05-05 22:12:00,46.8,45.4,30.07,NNE,12,0.0,13.0,95,0.00,,,0.01,Wunderground v.1.15,2013-05-06 03:12:00,
2013-05-05 22:14:00,46.7,45.3,30.07,NNE,12,0.0,13.0,95,0.00,,,0.01,Wunderground v.1.15,2013-05-06 03:14:00,
2013-05-05 22:20:00,46.6,45.5,30.07,NNE,12,0.0,13.0,96,0.00,,,0.01,Wunderground v.1.15,2013-05-06 03:20:00,
2013-05-05 22:22:00,46.6,45.5,30.07,North,355,0.0,13.0,96,0.00,,,0.01,Wunderground v.1.15,2013-05-06 03:22:00,
2013-05-05 22:26:00,46.6,45.5,30.07,NW,313,1.0,13.0,96,0.00,,,0.01,Wunderground v.1.15,2013-05-06 03:26:00,
2013-05-05 22:28:00,46.6,45.5,30.07,NW,312,1.0,13.0,96,0.00,,,0.01,Wunderground v.1.15,2013-05-06 03:28:00,
2013-05-05 22:32:00,46.4,45.3,30.07,NW,309,2.0,13.0,96,0.00,,,0.01,Wunderground v.1.15,2013-05-06 03:32:00,
2013-05-05 22:34:00,46.4,45.3,30.07,NW,309,2.0,13.0,96,0.00,,,0.01,Wunderground v.1.15,2013-05-06 03:34:00,
2013-05-05 22:40:00,46.6,45.8,30.07,WNW,285,2.0,13.0,97,0.00,,,0.01,Wunderground v.1.15,2013-05-06 03:40:00,
2013-05-05 22:42:00,46.7,45.9,30.07,WNW,284,2.0,13.0,97,0.00,,,0.01,Wunderground v.1.15,2013-05-06 03:42:00,
2013-05-05 22:46:00,46.7,45.9,30.07,WNW,294,2.0,13.0,97,0.00,,,0.01,Wunderground v.1.15,2013-05-06 03:46:00,
2013-05-05 22:48:00,46.7,45.9,30.07,WNW,298,3.0,13.0,97,0.00,,,0.01,Wunderground v.1.15,2013-05-06 03:48:00,
2013-05-05 22:50:00,46.7,45.9,30.07,NW,322,3.0,3.0,97,0.00,,,0.01,Wunderground v.1.15,2013-05-06 03:50:00,
2013-05-05 22:54:00,46.7,45.6,30.07,NW,323,3.0,13.0,96,0.00,,,0.01,Wunderground v.1.15,2013-05-06 03:54:00,
2013-05-05 22:56:00,46.6,45.5,30.07,NW,319,3.0,13.0,96,0.00,,,0.01,Wunderground v.1.15,2013-05-06 03:56:00,
2013-05-05 22:58:00,46.6,45.5,30.07,NW,321,3.0,13.0,96,0.00,,,0.01,Wunderground v.1.15,2013-05-06 03:58:00,
2013-05-05 23:00:00,46.6,45.5,30.07,NW,326,3.0,13.0,96,0.00,,,0.01,Wunderground v.1.15,2013-05-06 04:00:00,
2013-05-05 23:02:00,46.5,45.4,30.07,NW,318,3.0,13.0,96,0.00,,,0.01,Wunderground v.1.15,2013-05-06 04:02:00,
2013-05-05 23:04:00,46.5,45.4,30.07,NW,315,3.0,13.0,96,0.00,,,0.01,Wunderground v.1.15,2013-05-06 04:04:00,
2013-05-05 23:08:00,46.5,45.4,30.07,NW,312,3.0,13.0,96,0.00,,,0.01,Wunderground v.1.15,2013-05-06 04:08:00,
2013-05-05 23:14:00,46.4,45.3,30.07,NW,305,3.0,13.0,96,0.00,,,0.01,Wunderground v.1.15,2013-05-06 04:14:00,
2013-05-05 23:16:00,46.4,45.3,30.07,NW,312,3.0,13.0,96,0.00,,,0.01,Wunderground v.1.15,2013-05-06 04:16:00,
2013-05-05 23:20:00,46.3,45.2,30.07,NW,307,3.0,3.0,96,0.00,,,0.01,Wunderground v.1.15,2013-05-06 04:20:00,
2013-05-05 23:22:00,46.3,45.2,30.07,NW,311,3.0,13.0,96,0.00,,,0.01,Wunderground v.1.15,2013-05-06 04:22:00,
2013-05-05 23:26:00,46.2,45.1,30.07,NW,309,2.0,13.0,96,0.00,,,0.01,Wunderground v.1.15,2013-05-06 04:26:00,
2013-05-05 23:28:00,46.1,45.0,30.07,NW,310,2.0,13.0,96,0.00,,,0.01,Wunderground v.1.15,2013-05-06 04:28:00,
2013-05-05 23:32:00,46.0,45.2,30.07,NW,311,2.0,13.0,97,0.00,,,0.01,Wunderground v.1.15,2013-05-06 04:32:00,
2013-05-05 23:34:00,46.0,45.2,30.07,NW,310,2.0,13.0,97,0.00,,,0.01,Wunderground v.1.15,2013-05-06 04:34:00,
2013-05-05 23:35:00,46.0,45.2,30.07,NW,319,2.0,13.0,97,0.00,,,0.01,Wunderground v.1.15,2013-05-06 04:35:00,
2013-05-05 23:40:00,45.8,44.7,30.07,NW,319,2.0,2.0,96,0.00,,,0.01,Wunderground v.1.15,2013-05-06 04:40:00,
2013-05-05 23:42:00,45.7,44.6,30.07,NW,319,2.0,13.0,96,0.00,,,0.01,Wunderground v.1.15,2013-05-06 04:42:00,
2013-05-05 23:44:00,45.6,44.5,30.07,NW,311,1.0,13.0,96,0.00,,,0.01,Wunderground v.1.15,2013-05-06 04:44:00,
2013-05-05 23:46:00,45.6,44.8,30.07,NW,312,1.0,13.0,97,0.00,,,0.01,Wunderground v.1.15,2013-05-06 04:46:00,
2013-05-05 23:50:00,45.5,44.7,30.07,NW,312,1.0,13.0,97,0.00,,,0.01,Wunderground v.1.15,2013-05-06 04:50:00,
2013-05-05 23:52:00,45.5,44.7,30.07,WNW,298,1.0,13.0,97,0.00,,,0.01,Wunderground v.1.15,2013-05-06 04:52:00,
2013-05-05 23:58:00,45.5,44.7,30.07,WNW,295,2.0,13.0,97,0.00,,,0.01,Wunderground v.1.15,2013-05-06 04:58:00,